This demonstration page uses our WeatherBlox Daily Observations layout. Learn more.

Left ArrowRight Arrow

44.89941, -97.11507

Hourly Observations for November 30, 2020

Temp ( °F °C ) Dew Point ( °F °C ) Humidity (%) Winds ( mph kmh ) Pressure ( in mb ) Visibility ( mi km ) Precip ( " mm )
12:53 am 00:53 Clear 18 -7.8 13 -10.6 81 81 Calm 30.39 1029 10 16 0.00 0.00
1:53 am 01:53 Clear 16 -8.9 11 -11.7 80 80 Calm 30.39 1029 10 16 0.00 0.00
2:53 am 02:53 Clear 16 -8.9 11 -11.7 80 80 Calm 30.38 1029 10 16 0.00 0.00
3:53 am 03:53 Clear 15 -9.4 12 -11.1 88 88 Calm 30.36 1028 10 16 0.00 0.00
4:53 am 04:53 Clear 13 -10.6 10 -12.2 88 88 Calm 30.35 1028 10 16 0.00 0.00
5:53 am 05:53 Clear 11 -11.7 9 -12.8 92 92 Calm 30.33 1027 10 16 0.00 0.00
6:53 am 06:53 Clear 12 -11.1 9 -12.8 87 87 S 3 6 30.30 1026 10 16 0.00 0.00
7:53 am 07:53 Sunny 11 -11.7 7 -13.9 84 84 Calm 30.29 1026 10 16 0.00 0.00
8:53 am 08:53 Sunny 15 -9.4 12 -11.1 88 88 SSE 7 11 30.27 1025 10 16 0.00 0.00
9:53 am 09:53 Sunny 21 -6.1 17 -8.3 85 85 S 7 11 30.25 1024 10 16 0.00 0.00
10:53 am 10:53 Sunny 27 -2.8 19 -7.2 72 72 S 7 11 30.23 1024 10 16 0.00 0.00
11:53 am 11:53 Sunny 32 0 18 -7.8 56 56 S 12 19 30.19 1022 10 16 0.00 0.00
12:53 pm 12:53 Sunny 35 1.7 16 -8.9 46 46 S 12 19 30.15 1021 10 16 0.00 0.00
1:53 pm 13:53 Sunny 38 3.3 15 -9.4 39 39 S 10 17 30.13 1020 10 16 0.00 0.00
2:53 pm 14:53 Sunny 38 3.3 16 -8.9 41 41 SSE 12 19 30.10 1019 10 16 0.00 0.00
3:53 pm 15:53 Sunny 36 2.2 16 -8.9 44 44 SSE 14 22 30.09 1019 10 16 0.00 0.00
4:53 pm 16:53 Clear 32 0 17 -8.3 54 54 SSE 9 15 30.08 1019 10 16 0.00 0.00
5:53 pm 17:53 Clear 29 -1.7 16 -8.9 58 58 SSE 10 17 30.06 1018 10 16 0.00 0.00
6:53 pm 18:53 Clear 27 -2.8 16 -8.9 63 63 SSE 10 17 30.06 1018 10 16 0.00 0.00
7:53 pm 19:53 Clear 23 -5 15 -9.4 72 72 SSE 8 13 30.06 1018 10 16 0.00 0.00
8:53 pm 20:53 Clear 25 -3.9 16 -8.9 69 69 SSE 15 24 30.03 1017 10 16 0.00 0.00
9:53 pm 21:53 Clear 24 -4.4 15 -9.4 68 68 SSE 12 19 30.01 1016 10 16 0.00 0.00
10:53 pm 22:53 Clear 23 -5 15 -9.4 72 72 SSE 9 15 30.01 1016 10 16 0.00 0.00
11:53 pm 23:53 Clear 23 -5 15 -9.4 72 72 SSE 12 19 29.99 1016 10 16 0.00 0.00

Powered by AerisWeather